Time,TemperatureF,DewpointF,PressureIn,WindDirection,WindDirectionDegrees,WindSpeedMPH,WindSpeedGustMPH,Humidity,HourlyPrecipIn,Conditions,Clouds,dailyrainin,SoftwareType,DateUTC
2014-04-19 00:01:00,77.4,72.1,29.96,SSE,155,6.0,9.0,84,0.00,,,0.00,meteohub,2014-04-19 04:01:00,
2014-04-19 00:02:00,77.4,72.1,29.96,South,182,2.0,9.0,84,0.00,,,0.00,meteohub,2014-04-19 04:02:00,
2014-04-19 00:03:00,77.4,72.1,29.96,East,96,2.0,9.0,84,0.00,,,0.00,meteohub,2014-04-19 04:03:00,
2014-04-19 00:08:00,77.4,72.1,29.96,SSE,165,2.0,10.0,84,0.00,,,0.00,meteohub,2014-04-19 04:08:00,
2014-04-19 00:13:00,77.4,72.5,29.96,ESE,105,1.0,10.0,85,0.00,,,0.00,meteohub,2014-04-19 04:13:00,
2014-04-19 00:18:00,77.4,72.5,29.95,South,191,2.0,10.0,85,0.00,,,0.00,meteohub,2014-04-19 04:18:00,
2014-04-19 00:23:00,77.2,72.3,29.96,South,173,0.0,8.0,85,0.00,,,0.00,meteohub,2014-04-19 04:23:00,
2014-04-19 00:28:00,77.2,72.3,29.96,SSE,157,2.0,8.0,85,0.00,,,0.00,meteohub,2014-04-19 04:28:00,
2014-04-19 00:33:00,77.2,72.7,29.96,SSE,157,0.0,7.0,86,0.00,,,0.00,meteohub,2014-04-19 04:33:00,
2014-04-19 00:38:00,77.2,72.7,29.95,SSE,161,0.0,8.0,86,0.00,,,0.00,meteohub,2014-04-19 04:38:00,
2014-04-19 00:43:00,77.2,72.7,29.95,ESE,117,4.0,8.0,86,0.00,,,0.00,meteohub,2014-04-19 04:43:00,
2014-04-19 00:48:00,77.2,72.7,29.95,ESE,113,0.0,9.0,86,0.00,,,0.00,meteohub,2014-04-19 04:48:00,
2014-04-19 00:53:00,77.2,72.7,29.95,South,190,0.0,9.0,86,0.00,,,0.00,meteohub,2014-04-19 04:53:00,
2014-04-19 00:58:00,77.2,73.0,29.95,SSW,197,5.0,9.0,87,0.00,,,0.00,meteohub,2014-04-19 04:58:00,
2014-04-19 01:03:00,77.2,73.0,29.95,SSW,203,0.0,9.0,87,0.00,,,0.00,meteohub,2014-04-19 05:03:00,
2014-04-19 01:08:00,77.2,73.0,29.95,ENE,57,0.0,9.0,87,0.00,,,0.00,meteohub,2014-04-19 05:08:00,
2014-04-19 01:13:00,77.2,73.0,29.95,South,170,4.0,9.0,87,0.00,,,0.00,meteohub,2014-04-19 05:13:00,
2014-04-19 01:18:00,77.2,73.0,29.95,SE,142,2.0,9.0,87,0.00,,,0.00,meteohub,2014-04-19 05:18:00,
2014-04-19 01:23:00,77.2,73.0,29.95,South,173,3.0,8.0,87,0.00,,,0.00,meteohub,2014-04-19 05:23:00,
2014-04-19 01:29:00,77.2,73.0,29.95,SSW,196,6.0,7.0,87,0.00,,,0.00,meteohub,2014-04-19 05:29:00,
2014-04-19 01:34:00,77.0,72.9,29.94,South,169,0.0,7.0,87,0.00,,,0.00,meteohub,2014-04-19 05:34:00,
2014-04-19 01:36:00,77.0,72.9,29.94,SSW,204,5.0,10.0,87,0.00,,,0.00,meteohub,2014-04-19 05:36:00,
2014-04-19 01:41:00,76.8,72.3,29.94,SSW,204,7.0,10.0,86,0.00,,,0.00,meteohub,2014-04-19 05:41:00,
2014-04-19 01:46:00,76.8,72.3,29.94,SE,138,1.0,13.0,86,0.00,,,0.00,meteohub,2014-04-19 05:46:00,
2014-04-19 01:51:00,76.8,72.3,29.95,SSW,193,0.0,13.0,86,0.00,,,0.00,meteohub,2014-04-19 05:51:00,
2014-04-19 01:56:00,76.8,72.3,29.94,SSE,159,4.0,13.0,86,0.00,,,0.00,meteohub,2014-04-19 05:56:00,
2014-04-19 02:01:00,76.8,72.3,29.94,South,175,2.0,11.0,86,0.00,,,0.00,meteohub,2014-04-19 06:01:00,
2014-04-19 02:06:00,76.8,72.3,29.94,South,184,3.0,8.0,86,0.00,,,0.00,meteohub,2014-04-19 06:06:00,
2014-04-19 02:11:00,76.8,72.3,29.94,South,180,4.0,8.0,86,0.00,,,0.00,meteohub,2014-04-19 06:11:00,
2014-04-19 02:16:00,76.8,72.3,29.94,South,188,0.0,8.0,86,0.00,,,0.00,meteohub,2014-04-19 06:16:00,
2014-04-19 02:21:00,76.8,72.3,29.94,ESE,111,0.0,8.0,86,0.00,,,0.00,meteohub,2014-04-19 06:21:00,
2014-04-19 02:26:00,76.8,72.3,29.94,SW,222,1.0,8.0,86,0.00,,,0.00,meteohub,2014-04-19 06:26:00,
2014-04-19 02:31:00,76.8,72.3,29.94,South,176,1.0,7.0,86,0.00,,,0.00,meteohub,2014-04-19 06:31:00,
2014-04-19 02:36:00,76.8,72.3,29.94,SSE,150,6.0,7.0,86,0.00,,,0.00,meteohub,2014-04-19 06:36:00,
2014-04-19 02:41:00,76.5,72.0,29.93,SSW,203,3.0,9.0,86,0.01,,,0.01,meteohub,2014-04-19 06:41:00,
2014-04-19 02:46:00,75.9,71.8,29.93,SSW,198,0.0,9.0,87,0.03,,,0.03,meteohub,2014-04-19 06:46:00,
2014-04-19 02:51:00,75.7,71.6,29.92,SW,220,3.0,9.0,87,0.03,,,0.03,meteohub,2014-04-19 06:51:00,
2014-04-19 02:56:00,75.7,72.0,29.92,SW,223,0.0,8.0,88,0.03,,,0.03,meteohub,2014-04-19 06:56:00,
2014-04-19 03:01:00,75.7,72.0,29.92,SSW,211,3.0,8.0,88,0.03,,,0.03,meteohub,2014-04-19 07:01:00,
2014-04-19 03:07:00,75.9,72.1,29.91,SSW,194,4.0,8.0,88,0.03,,,0.03,meteohub,2014-04-19 07:07:00,
2014-04-19 03:12:00,75.9,72.5,29.91,South,182,0.0,6.0,89,0.03,,,0.03,meteohub,2014-04-19 07:12:00,
2014-04-19 03:17:00,75.9,72.5,29.91,SSW,199,0.0,6.0,89,0.03,,,0.03,meteohub,2014-04-19 07:17:00,
2014-04-19 03:22:00,75.9,72.5,29.91,SSW,202,7.0,7.0,89,0.03,,,0.03,meteohub,2014-04-19 07:22:00,
2014-04-19 03:27:00,75.9,72.9,29.91,SSE,153,0.0,7.0,90,0.03,,,0.03,meteohub,2014-04-19 07:27:00,
2014-04-19 03:32:00,75.9,72.9,29.91,South,185,0.0,7.0,90,0.03,,,0.03,meteohub,2014-04-19 07:32:00,
2014-04-19 03:37:00,75.9,72.9,29.91,SSE,161,1.0,7.0,90,0.03,,,0.03,meteohub,2014-04-19 07:37:00,
2014-04-19 03:42:00,75.9,72.9,29.91,South,191,0.0,6.0,90,0.01,,,0.03,meteohub,2014-04-19 07:42:00,
2014-04-19 03:47:00,75.9,72.9,29.90,South,171,2.0,7.0,90,0.00,,,0.03,meteohub,2014-04-19 07:47:00,
2014-04-19 03:52:00,75.9,72.9,29.90,SSW,200,1.0,7.0,90,0.00,,,0.03,meteohub,2014-04-19 07:52:00,
2014-04-19 03:57:00,75.9,72.9,29.90,South,171,0.0,7.0,90,0.00,,,0.03,meteohub,2014-04-19 07:57:00,
2014-04-19 04:02:00,75.7,72.7,29.90,SSW,193,0.0,5.0,90,0.00,,,0.03,meteohub,2014-04-19 08:02:00,
2014-04-19 04:07:00,75.7,72.7,29.90,SE,146,0.0,5.0,90,0.00,,,0.03,meteohub,2014-04-19 08:07:00,
2014-04-19 04:12:00,75.7,72.7,29.90,SSE,161,0.0,4.0,90,0.00,,,0.03,meteohub,2014-04-19 08:12:00,
2014-04-19 04:17:00,75.6,72.5,29.90,SSW,203,0.0,4.0,90,0.00,,,0.03,meteohub,2014-04-19 08:17:00,
2014-04-19 04:22:00,75.6,72.5,29.89,South,184,0.0,3.0,90,0.00,,,0.03,meteohub,2014-04-19 08:22:00,
2014-04-19 04:27:00,75.4,72.3,29.90,South,186,2.0,5.0,90,0.00,,,0.03,meteohub,2014-04-19 08:27:00,
2014-04-19 04:32:00,75.4,72.0,29.90,SW,227,1.0,7.0,89,0.00,,,0.03,meteohub,2014-04-19 08:32:00,
2014-04-19 04:37:00,75.6,72.1,29.90,SSE,164,0.0,7.0,89,0.00,,,0.03,meteohub,2014-04-19 08:37:00,
2014-04-19 04:42:00,75.6,72.1,29.90,SSW,211,3.0,7.0,89,0.00,,,0.03,meteohub,2014-04-19 08:42:00,
2014-04-19 04:47:00,75.7,72.0,29.91,WSW,250,0.0,7.0,88,0.00,,,0.03,meteohub,2014-04-19 08:47:00,
2014-04-19 04:52:00,75.7,72.0,29.90,SSE,161,3.0,7.0,88,0.00,,,0.03,meteohub,2014-04-19 08:52:00,
2014-04-19 04:57:00,75.7,71.6,29.90,SSE,157,0.0,7.0,87,0.00,,,0.03,meteohub,2014-04-19 08:57:00,
2014-04-19 05:02:00,75.7,71.6,29.90,South,187,3.0,6.0,87,0.00,,,0.03,meteohub,2014-04-19 09:02:00,
2014-04-19 05:07:00,75.9,71.8,29.91,SSW,205,2.0,6.0,87,0.00,,,0.03,meteohub,2014-04-19 09:07:00,
2014-04-19 05:12:00,75.9,71.8,29.91,SSW,211,1.0,5.0,87,0.00,,,0.03,meteohub,2014-04-19 09:12:00,
2014-04-19 05:17:00,75.9,71.8,29.90,South,176,0.0,5.0,87,0.00,,,0.03,meteohub,2014-04-19 09:17:00,
2014-04-19 05:22:00,75.9,71.8,29.90,South,187,0.0,5.0,87,0.00,,,0.03,meteohub,2014-04-19 09:22:00,
2014-04-19 05:27:00,75.9,71.8,29.90,South,180,0.0,5.0,87,0.00,,,0.03,meteohub,2014-04-19 09:27:00,
2014-04-19 05:32:00,75.7,71.6,29.90,SW,223,0.0,3.0,87,0.00,,,0.03,meteohub,2014-04-19 09:32:00,
2014-04-19 05:37:00,75.7,71.6,29.90,SSW,207,0.0,4.0,87,0.00,,,0.03,meteohub,2014-04-19 09:37:00,
2014-04-19 05:42:00,75.7,72.0,29.91,SSW,208,0.0,4.0,88,0.00,,,0.03,meteohub,2014-04-19 09:42:00,
2014-04-19 05:47:00,75.6,71.8,29.91,SSW,213,0.0,4.0,88,0.00,,,0.03,meteohub,2014-04-19 09:47:00,
2014-04-19 05:52:00,75.6,71.8,29.91,SSW,212,0.0,4.0,88,0.00,,,0.03,meteohub,2014-04-19 09:52:00,
2014-04-19 05:57:00,75.4,71.6,29.91,South,179,0.0,4.0,88,0.00,,,0.03,meteohub,2014-04-19 09:57:00,
2014-04-19 06:02:00,75.4,72.0,29.91,South,180,0.0,4.0,89,0.01,,,0.04,meteohub,2014-04-19 10:02:00,
2014-04-19 06:07:00,75.4,72.0,29.91,South,180,0.0,1.0,89,0.01,,,0.04,meteohub,2014-04-19 10:07:00,
2014-04-19 06:12:00,75.2,71.8,29.91,South,180,0.0,1.0,89,0.01,,,0.04,meteohub,2014-04-19 10:12:00,
2014-04-19 06:17:00,75.0,72.0,29.92,South,180,0.0,0.0,90,0.01,,,0.04,meteohub,2014-04-19 10:17:00,
2014-04-19 06:22:00,75.0,72.0,29.91,South,180,0.0,0.0,90,0.01,,,0.04,meteohub,2014-04-19 10:22:00,
2014-04-19 06:27:00,74.8,71.8,29.92,South,180,0.0,0.0,90,0.01,,,0.04,meteohub,2014-04-19 10:27:00,
2014-04-19 06:32:00,74.8,71.8,29.92,South,180,0.0,0.0,90,0.01,,,0.04,meteohub,2014-04-19 10:32:00,
2014-04-19 06:37:00,74.8,72.0,29.91,South,180,0.0,0.0,91,0.01,,,0.04,meteohub,2014-04-19 10:37:00,
2014-04-19 06:42:00,74.8,72.0,29.91,South,180,0.0,0.0,91,0.01,,,0.04,meteohub,2014-04-19 10:42:00,
2014-04-19 06:47:00,74.7,71.8,29.92,South,180,0.0,1.0,91,0.01,,,0.04,meteohub,2014-04-19 10:47:00,
2014-04-19 06:52:00,74.7,71.8,29.93,South,180,0.0,1.0,91,0.01,,,0.04,meteohub,2014-04-19 10:52:00,
2014-04-19 06:57:00,74.7,71.8,29.93,WSW,254,0.0,1.0,91,0.01,,,0.04,meteohub,2014-04-19 10:57:00,
2014-04-19 07:02:00,74.7,71.8,29.93,WSW,254,0.0,1.0,91,0.00,,,0.04,meteohub,2014-04-19 11:02:00,
2014-04-19 07:07:00,74.7,71.8,29.92,WSW,254,0.0,1.0,91,0.00,,,0.04,meteohub,2014-04-19 11:07:00,
2014-04-19 07:12:00,74.7,71.8,29.92,WSW,254,0.0,0.0,91,0.01,,,0.05,meteohub,2014-04-19 11:12:00,
2014-04-19 07:17:00,74.7,72.1,29.93,SSW,213,0.0,0.0,92,0.01,,,0.05,meteohub,2014-04-19 11:17:00,
2014-04-19 07:22:00,74.7,72.1,29.93,SW,234,0.0,1.0,92,0.01,,,0.05,meteohub,2014-04-19 11:22:00,
2014-04-19 07:27:00,74.7,72.1,29.94,SSW,213,2.0,4.0,92,0.02,,,0.06,meteohub,2014-04-19 11:27:00,
2014-04-19 07:32:00,74.7,72.1,29.94,SW,224,2.0,4.0,92,0.03,,,0.07,meteohub,2014-04-19 11:32:00,
2014-04-19 07:37:00,74.5,71.6,29.94,West,261,3.0,7.0,91,0.03,,,0.07,meteohub,2014-04-19 11:37:00,
2014-04-19 07:42:00,73.9,71.1,29.95,SW,216,5.0,11.0,91,0.03,,,0.07,meteohub,2014-04-19 11:42:00,
2014-04-19 07:47:00,73.6,70.7,29.94,SSW,212,7.0,12.0,91,0.03,,,0.07,meteohub,2014-04-19 11:47:00,
2014-04-19 07:52:00,72.9,69.4,29.95,South,188,7.0,12.0,89,0.04,,,0.08,meteohub,2014-04-19 11:52:00,
2014-04-19 07:57:00,72.3,69.3,29.95,WNW,291,2.0,12.0,90,0.04,,,0.08,meteohub,2014-04-19 11:57:00,
2014-04-19 08:02:00,72.0,68.9,29.95,WSW,240,0.0,12.0,90,0.05,,,0.09,meteohub,2014-04-19 12:02:00,
2014-04-19 08:07:00,71.6,68.5,29.95,West,274,3.0,7.0,90,0.05,,,0.09,meteohub,2014-04-19 12:07:00,
2014-04-19 08:12:00,71.4,68.4,29.95,West,279,0.0,5.0,90,0.04,,,0.09,meteohub,2014-04-19 12:12:00,
2014-04-19 08:17:00,71.4,68.7,29.95,WSW,248,0.0,5.0,91,0.04,,,0.09,meteohub,2014-04-19 12:17:00,
2014-04-19 08:22:00,71.2,68.5,29.96,WSW,242,0.0,4.0,91,0.04,,,0.09,meteohub,2014-04-19 12:22:00,
2014-04-19 08:27:00,71.2,68.5,29.96,West,269,0.0,4.0,91,0.03,,,0.09,meteohub,2014-04-19 12:27:00,
2014-04-19 08:32:00,71.1,68.0,29.96,SSW,212,1.0,5.0,90,0.02,,,0.09,meteohub,2014-04-19 12:32:00,
2014-04-19 08:37:00,71.1,68.0,29.96,SW,231,1.0,8.0,90,0.02,,,0.09,meteohub,2014-04-19 12:37:00,
2014-04-19 08:42:00,71.1,68.0,29.96,SSW,203,5.0,8.0,90,0.02,,,0.09,meteohub,2014-04-19 12:42:00,
2014-04-19 08:47:00,70.9,67.8,29.96,SSW,194,3.0,9.0,90,0.04,,,0.10,meteohub,2014-04-19 12:47:00,
2014-04-19 08:52:00,70.5,67.5,29.96,SW,232,0.0,9.0,90,0.03,,,0.11,meteohub,2014-04-19 12:52:00,
2014-04-19 08:57:00,70.5,67.8,29.95,WSW,242,2.0,9.0,91,0.03,,,0.11,meteohub,2014-04-19 12:57:00,
2014-04-19 09:02:00,70.5,67.8,29.96,South,191,2.0,5.0,91,0.03,,,0.12,meteohub,2014-04-19 13:02:00,
2014-04-19 09:07:00,70.5,67.8,29.96,SW,222,2.0,6.0,91,0.03,,,0.12,meteohub,2014-04-19 13:07:00,
2014-04-19 09:12:00,70.5,67.8,29.96,SW,226,3.0,6.0,91,0.03,,,0.12,meteohub,2014-04-19 13:12:00,
2014-04-19 09:17:00,70.9,68.2,29.96,West,276,1.0,6.0,91,0.03,,,0.12,meteohub,2014-04-19 13:17:00,
2014-04-19 09:22:00,71.1,68.4,29.96,WNW,290,0.0,6.0,91,0.03,,,0.12,meteohub,2014-04-19 13:22:00,
2014-04-19 09:27:00,71.2,68.2,29.96,SW,231,2.0,6.0,90,0.03,,,0.12,meteohub,2014-04-19 13:27:00,
2014-04-19 09:32:00,71.8,68.4,29.96,WNW,286,0.0,9.0,89,0.03,,,0.12,meteohub,2014-04-19 13:32:00,
2014-04-19 09:37:00,72.1,68.7,29.96,WNW,284,0.0,9.0,89,0.03,,,0.12,meteohub,2014-04-19 13:37:00,
2014-04-19 09:42:00,72.3,68.9,29.96,WNW,293,0.0,9.0,89,0.02,,,0.12,meteohub,2014-04-19 13:42:00,
2014-04-19 09:47:00,72.9,69.1,29.96,SSW,213,1.0,5.0,88,0.01,,,0.12,meteohub,2014-04-19 13:47:00,
2014-04-19 09:52:00,73.0,69.3,29.96,SW,232,0.0,5.0,88,0.01,,,0.12,meteohub,2014-04-19 13:52:00,
2014-04-19 09:57:00,73.4,69.6,29.96,SSW,213,1.0,4.0,88,0.01,,,0.12,meteohub,2014-04-19 13:57:00,
2014-04-19 10:03:00,73.6,69.4,29.96,WSW,240,1.0,5.0,87,0.00,,,0.12,meteohub,2014-04-19 14:03:00,
2014-04-19 10:08:00,73.9,69.8,29.96,West,268,3.0,5.0,87,0.00,,,0.12,meteohub,2014-04-19 14:08:00,
2014-04-19 10:13:00,74.3,69.8,29.96,WSW,239,0.0,5.0,86,0.00,,,0.12,meteohub,2014-04-19 14:13:00,
2014-04-19 10:18:00,74.7,69.8,29.96,WNW,284,0.0,6.0,85,0.00,,,0.12,meteohub,2014-04-19 14:18:00,
2014-04-19 10:23:00,74.8,70.0,29.96,WSW,248,0.0,8.0,85,0.00,,,0.12,meteohub,2014-04-19 14:23:00,
2014-04-19 10:28:00,74.8,70.0,29.96,SSW,194,0.0,8.0,85,0.00,,,0.12,meteohub,2014-04-19 14:28:00,
2014-04-19 10:33:00,75.4,70.2,29.96,WNW,294,1.0,8.0,84,0.00,,,0.12,meteohub,2014-04-19 14:33:00,
2014-04-19 10:38:00,75.7,70.5,29.96,West,267,2.0,7.0,84,0.00,,,0.12,meteohub,2014-04-19 14:38:00,
2014-04-19 10:43:00,76.3,71.1,29.95,WNW,292,0.0,7.0,84,0.00,,,0.12,meteohub,2014-04-19 14:43:00,
2014-04-19 10:48:00,77.2,70.9,29.95,NNW,330,2.0,7.0,81,0.00,,,0.12,meteohub,2014-04-19 14:48:00,
2014-04-19 10:53:00,77.5,70.2,29.95,West,280,3.0,7.0,78,0.00,,,0.12,meteohub,2014-04-19 14:53:00,
2014-04-19 10:58:00,78.1,71.1,29.95,NW,319,1.0,7.0,79,0.00,,,0.12,meteohub,2014-04-19 14:58:00,
2014-04-19 11:03:00,78.4,71.1,29.95,SSW,196,0.0,9.0,78,0.00,,,0.12,meteohub,2014-04-19 15:03:00,
2014-04-19 11:08:00,78.6,70.3,29.95,West,265,1.0,9.0,76,0.00,,,0.12,meteohub,2014-04-19 15:08:00,
2014-04-19 11:13:00,79.3,71.1,29.95,NNW,329,1.0,9.0,76,0.00,,,0.12,meteohub,2014-04-19 15:13:00,
2014-04-19 11:18:00,79.9,71.6,29.95,NW,311,5.0,9.0,76,0.00,,,0.12,meteohub,2014-04-19 15:18:00,
2014-04-19 11:23:00,80.4,70.9,29.95,NNW,334,2.0,9.0,73,0.00,,,0.12,meteohub,2014-04-19 15:23:00,
2014-04-19 11:28:00,81.1,71.6,29.95,WNW,302,1.0,9.0,73,0.00,,,0.12,meteohub,2014-04-19 15:28:00,
2014-04-19 11:33:00,81.3,71.1,29.95,WNW,284,3.0,6.0,71,0.00,,,0.12,meteohub,2014-04-19 15:33:00,
2014-04-19 11:38:00,81.5,71.2,29.95,West,271,5.0,9.0,71,0.00,,,0.12,meteohub,2014-04-19 15:38:00,
2014-04-19 11:43:00,81.7,70.5,29.95,WNW,296,1.0,9.0,69,0.00,,,0.12,meteohub,2014-04-19 15:43:00,
2014-04-19 11:48:00,82.0,71.2,29.94,NW,323,1.0,9.0,70,0.00,,,0.12,meteohub,2014-04-19 15:48:00,
2014-04-19 11:53:00,82.6,70.5,29.94,WNW,300,1.0,8.0,67,0.00,,,0.12,meteohub,2014-04-19 15:53:00,
2014-04-19 11:58:00,82.8,69.8,29.94,NW,306,1.0,8.0,65,0.00,,,0.12,meteohub,2014-04-19 15:58:00,
2014-04-19 12:03:00,82.8,69.8,29.94,ESE,102,0.0,7.0,65,0.00,,,0.12,meteohub,2014-04-19 16:03:00,
2014-04-19 12:08:00,82.8,70.7,29.94,WNW,285,0.0,6.0,67,0.00,,,0.12,meteohub,2014-04-19 16:08:00,
2014-04-19 12:13:00,83.5,71.8,29.93,West,270,0.0,6.0,68,0.00,,,0.12,meteohub,2014-04-19 16:13:00,
2014-04-19 12:18:00,83.8,70.3,29.93,SW,235,5.0,5.0,64,0.00,,,0.12,meteohub,2014-04-19 16:18:00,
2014-04-19 12:23:00,84.2,70.2,29.94,SSW,208,5.0,6.0,63,0.00,,,0.12,meteohub,2014-04-19 16:23:00,
2014-04-19 12:28:00,84.4,70.9,29.93,WNW,296,2.0,8.0,64,0.00,,,0.12,meteohub,2014-04-19 16:28:00,
2014-04-19 12:33:00,84.7,70.7,29.93,West,278,2.0,8.0,63,0.00,,,0.12,meteohub,2014-04-19 16:33:00,
2014-04-19 12:38:00,84.9,70.5,29.93,SSW,192,1.0,8.0,62,0.00,,,0.12,meteohub,2014-04-19 16:38:00,
2014-04-19 12:43:00,85.3,70.7,29.92,NNW,329,0.0,8.0,62,0.00,,,0.12,meteohub,2014-04-19 16:43:00,
2014-04-19 12:49:00,85.3,70.3,29.92,West,279,5.0,8.0,61,0.00,,,0.12,meteohub,2014-04-19 16:49:00,
2014-04-19 12:54:00,85.3,70.7,29.92,South,171,0.0,7.0,62,0.00,,,0.12,meteohub,2014-04-19 16:54:00,
2014-04-19 12:59:00,85.3,70.7,29.92,SSW,207,1.0,7.0,62,0.00,,,0.12,meteohub,2014-04-19 16:59:00,
2014-04-19 13:04:00,85.5,71.4,29.91,South,179,4.0,7.0,63,0.00,,,0.12,meteohub,2014-04-19 17:04:00,
2014-04-19 13:09:00,85.6,71.6,29.91,NW,311,2.0,7.0,63,0.00,,,0.12,meteohub,2014-04-19 17:09:00,
2014-04-19 13:14:00,86.0,71.1,29.91,South,172,1.0,7.0,61,0.00,,,0.12,meteohub,2014-04-19 17:14:00,
2014-04-19 13:19:00,86.4,71.2,29.91,SSW,211,1.0,6.0,61,0.00,,,0.12,meteohub,2014-04-19 17:19:00,
2014-04-19 13:24:00,86.2,71.1,29.91,SW,234,2.0,6.0,61,0.00,,,0.12,meteohub,2014-04-19 17:24:00,
2014-04-19 13:29:00,86.2,70.7,29.91,WNW,296,0.0,6.0,60,0.00,,,0.12,meteohub,2014-04-19 17:29:00,
2014-04-19 13:34:00,85.8,70.3,29.91,West,276,0.0,7.0,60,0.00,,,0.12,meteohub,2014-04-19 17:34:00,
2014-04-19 13:39:00,86.0,70.5,29.90,WSW,240,0.0,8.0,60,0.00,,,0.12,meteohub,2014-04-19 17:39:00,
2014-04-19 13:44:00,86.7,71.2,29.90,North,355,4.0,8.0,60,0.00,,,0.12,meteohub,2014-04-19 17:44:00,
2014-04-19 13:49:00,86.5,70.0,29.90,West,268,1.0,8.0,58,0.00,,,0.12,meteohub,2014-04-19 17:49:00,
2014-04-19 13:54:00,86.5,70.5,29.90,WSW,243,1.0,7.0,59,0.00,,,0.12,meteohub,2014-04-19 17:54:00,
2014-04-19 13:59:00,86.7,70.2,29.90,WNW,286,5.0,7.0,58,0.00,,,0.12,meteohub,2014-04-19 17:59:00,
2014-04-19 14:04:00,87.4,70.3,29.89,WSW,257,2.0,10.0,57,0.00,,,0.12,meteohub,2014-04-19 18:04:00,
2014-04-19 14:09:00,88.0,69.8,29.90,West,271,6.0,12.0,55,0.00,,,0.12,meteohub,2014-04-19 18:09:00,
2014-04-19 14:14:00,87.4,70.3,29.90,SSW,202,1.0,12.0,57,0.00,,,0.12,meteohub,2014-04-19 18:14:00,
2014-04-19 14:19:00,87.8,69.6,29.89,SSW,210,5.0,12.0,55,0.00,,,0.12,meteohub,2014-04-19 18:19:00,
2014-04-19 14:24:00,88.3,70.2,29.90,South,173,2.0,11.0,55,0.00,,,0.12,meteohub,2014-04-19 18:24:00,
2014-04-19 14:29:00,88.9,70.2,29.89,North,5,1.0,11.0,54,0.00,,,0.12,meteohub,2014-04-19 18:29:00,
2014-04-19 14:34:00,89.4,70.5,29.89,NW,314,1.0,11.0,54,0.00,,,0.12,meteohub,2014-04-19 18:34:00,
2014-04-19 14:39:00,89.1,69.6,29.89,ESE,111,3.0,11.0,53,0.00,,,0.12,meteohub,2014-04-19 18:39:00,
2014-04-19 14:44:00,88.5,69.8,29.89,SW,225,3.0,10.0,54,0.00,,,0.12,meteohub,2014-04-19 18:44:00,
2014-04-19 14:49:00,89.2,70.3,29.88,NW,315,3.0,9.0,54,0.00,,,0.12,meteohub,2014-04-19 18:49:00,
2014-04-19 14:55:00,90.1,70.7,29.88,WNW,298,1.0,9.0,53,0.00,,,0.12,meteohub,2014-04-19 18:55:00,
2014-04-19 15:00:00,90.9,70.2,29.88,WNW,300,0.0,8.0,51,0.00,,,0.12,meteohub,2014-04-19 19:00:00,
2014-04-19 15:05:00,90.5,70.0,29.88,South,190,6.0,8.0,51,0.00,,,0.12,meteohub,2014-04-19 19:05:00,
2014-04-19 15:10:00,88.2,71.1,29.88,SW,235,6.0,9.0,57,0.00,,,0.12,meteohub,2014-04-19 19:10:00,
2014-04-19 15:15:00,86.4,71.2,29.88,SE,134,1.0,9.0,61,0.00,,,0.12,meteohub,2014-04-19 19:15:00,
2014-04-19 15:20:00,86.0,70.5,29.87,West,265,2.0,9.0,60,0.00,,,0.12,meteohub,2014-04-19 19:20:00,
2014-04-19 15:25:00,86.2,72.5,29.88,SSW,199,1.0,8.0,64,0.00,,,0.12,meteohub,2014-04-19 19:25:00,
2014-04-19 15:30:00,85.3,72.1,29.87,SSW,207,3.0,8.0,65,0.00,,,0.12,meteohub,2014-04-19 19:30:00,
2014-04-19 15:35:00,84.7,72.1,29.87,SW,215,5.0,8.0,66,0.00,,,0.12,meteohub,2014-04-19 19:35:00,
2014-04-19 15:40:00,84.7,72.5,29.87,SW,215,4.0,8.0,67,0.00,,,0.12,meteohub,2014-04-19 19:40:00,
2014-04-19 15:45:00,83.8,72.1,29.87,SSW,201,0.0,7.0,68,0.00,,,0.12,meteohub,2014-04-19 19:45:00,
2014-04-19 15:50:00,83.8,73.0,29.87,SSW,207,3.0,9.0,70,0.00,,,0.12,meteohub,2014-04-19 19:50:00,
2014-04-19 15:55:00,83.8,72.5,29.87,West,264,2.0,9.0,69,0.00,,,0.12,meteohub,2014-04-19 19:55:00,
2014-04-19 16:00:00,83.7,72.3,29.87,South,169,1.0,9.0,69,0.00,,,0.12,meteohub,2014-04-19 20:00:00,
2014-04-19 16:05:00,82.9,72.1,29.87,ESE,113,0.0,9.0,70,0.00,,,0.12,meteohub,2014-04-19 20:05:00,
2014-04-19 16:10:00,82.9,72.5,29.87,NNW,330,0.0,9.0,71,0.00,,,0.12,meteohub,2014-04-19 20:10:00,
2014-04-19 16:15:00,83.8,68.9,29.87,NNW,327,3.0,9.0,61,0.00,,,0.12,meteohub,2014-04-19 20:15:00,
2014-04-19 16:20:00,85.8,69.8,29.86,West,281,3.0,9.0,59,0.00,,,0.12,meteohub,2014-04-19 20:20:00,
2014-04-19 16:25:00,86.7,68.5,29.86,WNW,299,1.0,9.0,55,0.00,,,0.12,meteohub,2014-04-19 20:25:00,
2014-04-19 16:30:00,86.5,68.4,29.86,NNW,328,0.0,8.0,55,0.00,,,0.12,meteohub,2014-04-19 20:30:00,
2014-04-19 16:35:00,86.5,68.0,29.86,West,273,5.0,8.0,54,0.00,,,0.12,meteohub,2014-04-19 20:35:00,
2014-04-19 16:40:00,86.5,68.9,29.86,WSW,254,4.0,8.0,56,0.00,,,0.12,meteohub,2014-04-19 20:40:00,
2014-04-19 16:45:00,86.5,69.4,29.86,NW,318,3.0,8.0,57,0.00,,,0.12,meteohub,2014-04-19 20:45:00,
2014-04-19 16:50:00,86.2,69.6,29.86,SW,232,6.0,11.0,58,0.00,,,0.12,meteohub,2014-04-19 20:50:00,
2014-04-19 16:55:00,84.7,68.4,29.86,West,281,8.0,11.0,58,0.00,,,0.12,meteohub,2014-04-19 20:55:00,
2014-04-19 17:00:00,84.4,68.9,29.87,NW,304,3.0,11.0,60,0.00,,,0.12,meteohub,2014-04-19 21:00:00,
2014-04-19 17:06:00,83.7,68.4,29.87,WNW,300,3.0,14.0,60,0.00,,,0.12,meteohub,2014-04-19 21:06:00,
2014-04-19 17:11:00,82.9,68.2,29.87,West,279,10.0,14.0,61,0.00,,,0.12,meteohub,2014-04-19 21:11:00,
2014-04-19 17:16:00,82.6,67.8,29.87,West,261,5.0,14.0,61,0.00,,,0.12,meteohub,2014-04-19 21:16:00,
2014-04-19 17:21:00,82.4,67.6,29.87,NW,306,2.0,16.0,61,0.00,,,0.12,meteohub,2014-04-19 21:21:00,
2014-04-19 17:26:00,82.6,67.8,29.88,North,355,5.0,16.0,61,0.00,,,0.12,meteohub,2014-04-19 21:26:00,
2014-04-19 17:31:00,82.2,67.5,29.88,WNW,298,2.0,16.0,61,0.00,,,0.12,meteohub,2014-04-19 21:31:00,
2014-04-19 17:36:00,81.7,67.5,29.88,North,0,3.0,14.0,62,0.00,,,0.12,meteohub,2014-04-19 21:36:00,
2014-04-19 17:41:00,81.1,66.9,29.88,NW,323,7.0,15.0,62,0.00,,,0.12,meteohub,2014-04-19 21:41:00,
2014-04-19 17:46:00,81.7,67.5,29.88,WNW,292,5.0,15.0,62,0.00,,,0.12,meteohub,2014-04-19 21:46:00,
2014-04-19 17:51:00,81.9,67.6,29.88,West,276,1.0,15.0,62,0.00,,,0.12,meteohub,2014-04-19 21:51:00,
2014-04-19 17:56:00,82.2,67.5,29.88,WNW,283,6.0,10.0,61,0.00,,,0.12,meteohub,2014-04-19 21:56:00,
2014-04-19 18:01:00,82.0,66.7,29.88,West,277,11.0,11.0,60,0.00,,,0.12,meteohub,2014-04-19 22:01:00,
2014-04-19 18:06:00,81.7,66.4,29.88,NNW,331,0.0,14.0,60,0.00,,,0.12,meteohub,2014-04-19 22:06:00,
2014-04-19 18:11:00,81.7,66.4,29.88,WNW,284,4.0,14.0,60,0.00,,,0.12,meteohub,2014-04-19 22:11:00,
2014-04-19 18:16:00,81.3,66.0,29.88,WNW,296,0.0,14.0,60,0.00,,,0.12,meteohub,2014-04-19 22:16:00,
2014-04-19 18:21:00,81.1,66.4,29.88,WNW,290,9.0,14.0,61,0.00,,,0.12,meteohub,2014-04-19 22:21:00,
2014-04-19 18:26:00,80.4,65.7,29.89,North,350,2.0,13.0,61,0.00,,,0.12,meteohub,2014-04-19 22:26:00,
2014-04-19 18:31:00,80.4,66.2,29.89,NE,46,3.0,13.0,62,0.00,,,0.12,meteohub,2014-04-19 22:31:00,
2014-04-19 18:36:00,80.8,65.7,29.89,NNW,331,3.0,12.0,60,0.00,,,0.12,meteohub,2014-04-19 22:36:00,
2014-04-19 18:41:00,80.4,65.3,29.89,West,267,5.0,13.0,60,0.00,,,0.12,meteohub,2014-04-19 22:41:00,
2014-04-19 18:46:00,80.2,65.5,29.89,WNW,297,3.0,13.0,61,0.00,,,0.12,meteohub,2014-04-19 22:46:00,
2014-04-19 18:51:00,80.1,64.9,29.89,NNW,338,10.0,13.0,60,0.00,,,0.12,meteohub,2014-04-19 22:51:00,
2014-04-19 18:56:00,79.7,64.6,29.89,WNW,296,10.0,17.0,60,0.00,,,0.12,meteohub,2014-04-19 22:56:00,
2014-04-19 19:01:00,79.3,64.8,29.89,NW,312,3.0,17.0,61,0.00,,,0.12,meteohub,2014-04-19 23:01:00,
2014-04-19 19:06:00,79.0,64.8,29.90,NNW,337,5.0,17.0,62,0.00,,,0.12,meteohub,2014-04-19 23:06:00,
2014-04-19 19:11:00,78.6,64.6,29.90,West,263,6.0,15.0,62,0.00,,,0.12,meteohub,2014-04-19 23:11:00,
2014-04-19 19:16:00,78.4,64.8,29.90,WNW,296,1.0,13.0,63,0.00,,,0.12,meteohub,2014-04-19 23:16:00,
2014-04-19 19:21:00,77.9,64.2,29.90,NW,315,6.0,13.0,63,0.00,,,0.12,meteohub,2014-04-19 23:21:00,
2014-04-19 19:26:00,77.5,64.4,29.90,WNW,294,4.0,13.0,64,0.00,,,0.12,meteohub,2014-04-19 23:26:00,
2014-04-19 19:31:00,77.2,63.7,29.91,West,277,3.0,13.0,63,0.00,,,0.12,meteohub,2014-04-19 23:31:00,
2014-04-19 19:36:00,76.6,63.1,29.91,WNW,295,0.0,14.0,63,0.00,,,0.12,meteohub,2014-04-19 23:36:00,
2014-04-19 19:41:00,76.5,63.0,29.91,WNW,290,1.0,14.0,63,0.00,,,0.12,meteohub,2014-04-19 23:41:00,
2014-04-19 19:46:00,76.1,63.0,29.91,WNW,282,4.0,14.0,64,0.00,,,0.12,meteohub,2014-04-19 23:46:00,
2014-04-19 19:51:00,75.7,62.2,29.91,WNW,287,3.0,16.0,63,0.00,,,0.12,meteohub,2014-04-19 23:51:00,
2014-04-19 19:56:00,75.6,62.6,29.91,NW,323,0.0,16.0,64,0.00,,,0.12,meteohub,2014-04-19 23:56:00,
2014-04-19 20:01:00,75.4,62.4,29.91,WNW,298,3.0,16.0,64,0.00,,,0.12,meteohub,2014-04-20 00:01:00,
2014-04-19 20:06:00,75.4,62.8,29.92,NNW,333,4.0,11.0,65,0.00,,,0.00,meteohub,2014-04-20 00:06:00,
2014-04-19 20:11:00,75.0,62.1,29.92,NNW,328,2.0,9.0,64,0.00,,,0.00,meteohub,2014-04-20 00:11:00,
2014-04-19 20:17:00,74.8,61.9,29.92,NW,309,1.0,9.0,64,0.00,,,0.00,meteohub,2014-04-20 00:17:00,
2014-04-19 20:22:00,74.7,61.2,29.92,WNW,288,0.0,9.0,63,0.00,,,0.00,meteohub,2014-04-20 00:22:00,
2014-04-19 20:27:00,74.5,61.5,29.92,WNW,297,2.0,10.0,64,0.00,,,0.00,meteohub,2014-04-20 00:27:00,
2014-04-19 20:32:00,74.5,61.5,29.93,West,276,6.0,10.0,64,0.00,,,0.00,meteohub,2014-04-20 00:32:00,
2014-04-19 20:37:00,74.1,61.5,29.93,West,279,0.0,10.0,65,0.00,,,0.00,meteohub,2014-04-20 00:37:00,
2014-04-19 20:42:00,73.9,61.3,29.93,West,263,4.0,12.0,65,0.00,,,0.00,meteohub,2014-04-20 00:42:00,
2014-04-19 20:47:00,73.8,61.7,29.94,WNW,300,5.0,14.0,66,0.00,,,0.00,meteohub,2014-04-20 00:47:00,
2014-04-19 20:52:00,73.6,61.9,29.94,West,268,5.0,14.0,67,0.00,,,0.00,meteohub,2014-04-20 00:52:00,
2014-04-19 20:57:00,73.2,61.5,29.94,NNW,342,2.0,14.0,67,0.00,,,0.00,meteohub,2014-04-20 00:57:00,
2014-04-19 21:02:00,72.9,61.3,29.94,West,270,6.0,12.0,67,0.00,,,0.00,meteohub,2014-04-20 01:02:00,
2014-04-19 21:07:00,72.9,61.7,29.94,North,350,0.0,12.0,68,0.00,,,0.00,meteohub,2014-04-20 01:07:00,
2014-04-19 21:12:00,72.5,61.0,29.94,West,271,6.0,12.0,67,0.00,,,0.00,meteohub,2014-04-20 01:12:00,